星链-31747 (STARLINK-31747 )

导读

STARLINK-31747是美国SpaceX公司“星链”星座项目的低轨通信卫星,于2024年4月23日发射。作为星链组网卫星,它运行在近地轨道,依托星链网络的先进通信技术,为全球提供高速低延迟互联网接入,重点弥补偏远地区网络覆盖缺口,助力实现全球互联,是SpaceX持续推进星链星座部署、优化全球卫星互联网服务能力的重要组成部分。

基本信息
目录编号:
59564
目录名称:
STARLINK-31747
国际标识:
2024-076A
轨道中心:
EARTH
卫星名称:
星链-31747
卫星全名:
星链-31747 (STARLINK-31747 )
卫星状态:
在轨 (已飞行785 天)
发射日期:
2024-04-23 UTC
国别 :
美国 (US)
星等 :
--
轨道信息
数据来源 国际轨道数据 AOE轨道数据
星历时间 2026-06-16T14:47:47+0800
1天前
查看轨道信息
2026-06-17T02:00:00+0800
22小时前
查看轨道信息
半长轴 6861.166km 6861.174km
偏心率 0.0001001 0.0000033
轨道倾角 43.002° 42.997°
近地点辐角 276.705° 152.788°
升交点赤经 161.613° 158.978°
平近点角 83.369° 257.463°
近地点 482.342km 483.014km
远地点 483.716km 483.06km
周期 94.266分钟 94.266分钟
每日圈数 15.275868 15.275841
详细信息
固有亮度:
5
最大亮度:
1.5
卫星平台:
Starlink v2.0 mini
覆盖范围:
全球
运营商:
太空探索技术公司
运营商所在国:
美国
制造商(研发单位):
太空探索技术公司
制造商所在国:
美国
使用方式:
暂无
卫星简介
星链(Starlink)计划是由太空探索技术公司(SpaceX)提出的一个巨型低轨卫星互联网星座项目,计划在2019年至2024年间在太空搭建由约1.2万颗卫星组成的“星链”网络,其中1584颗将部署在地球上空550千米处的近地轨道,并从2020年开始工作。该卫星仍在工作。
2D轨道图
3D轨道图
轨道高度分析图
轨道倾角分析图
轨道综合分析图
查看轨道综合分析图